Boulder City, Nevada Weather observations

Data are for observation ending at time listed.
 Day   Time    Ave.   Ave.  Ave.  Vector   Max.   Stn.    Total    Solar   Ave.  
  of    of     Air    Rel.  Wind   Wind    Wind   Baro.  Precip.   Rad.    Soil  
Year   Day     Temp.  Hum.  Speed  Dir.    Gust   Pres.                    Temp. 
2026   (PST)    F      %     mph   deg.    mph     mb.     in.     W/m2     F   
------------------------------------------------------------------------------
 244   16:10   95.7     9   10.9   213     21.8   914.7    0.00   99999    102.2
 244   16:20   95.8     9   10.7   207     19.1   914.6    0.00   99999    101.9
 244   16:30   95.4     9    9.3   217     17.2   914.6    0.00   99999    101.7
 244   16:40   95.7     9    7.9   203     15.6   914.5    0.00   99999    101.6
 244   16:50   95.3     9    7.8   213     14.5   914.6    0.00   99999    101.4
 244   17:00   94.6    10   10.1   210     17.0   914.6    0.00   99999    101.2
 244   17:10   94.6    10    9.8   195     16.1   914.2    0.00   99999    101.0
 244   17:20   94.4    10    8.5   202     14.2   914.2    0.00   99999    100.8
 244   17:30   93.6    10    7.4   198     14.2   914.0    0.00   99999    100.6
 244   17:40   93.4    11    8.6   198     15.6   913.8    0.00   99999    100.4
 244   17:50   93.2    12    9.0   192     16.4   913.7    0.00   99999    100.2
 244   18:00   92.9    11    8.2   186     17.2   913.5    0.00   99999    99.9
 244   18:10   92.4    11    7.0   192     16.8   913.5    0.00   99999    99.6
 244   18:20   91.7    11    3.7   209      7.7   913.5    0.00   99999    99.4
 244   18:30   91.1    12    3.5   193      6.1   913.5    0.00   99999    99.2
 244   18:40   90.6    12    3.1   174      5.7   913.5    0.00   99999    99.1
 244   18:50   90.0    12    3.2   151      5.3   913.5    0.00   99999    98.7
 244   19:00   89.7    12    3.3   173      6.5   913.5    0.00   99999    98.5
 244   19:10   88.4    13    2.8   246      4.3   913.6    0.00   99999    98.3
 244   19:20   87.7    13    3.4   194      6.6   913.7    0.00   99999    98.1
 244   19:30   88.0    13    4.7   191      8.6   913.8    0.00   99999    97.8
 244   19:40   87.9    13    4.2   202      7.2   913.9    0.00   99999    97.6
 244   19:50   87.9    12    4.6   193     10.2   914.0    0.00   99999    97.3
 244   20:00   87.8    13    6.1   191     11.2   914.1    0.00   99999    97.0
 244   20:10   88.1    12    7.5   190     13.8   914.3    0.00   99999    96.7
 244   20:20   87.9    12    6.4   198     12.3   914.4    0.00   99999    96.5
 244   20:30   87.1    13    5.9   209      9.6   914.5    0.00   99999    96.2
 244   20:40   85.9    13    4.3   230      7.8   914.6    0.00   99999    96.0
 244   20:50   84.5    14    5.7   233      8.5   914.6    0.00   99999    95.8
 244   21:00   84.5    14    6.9   224     13.2   914.7    0.00   99999    95.6
 244   21:10   84.2    13    5.9   221      9.3   914.7    0.00   99999    95.3
 244   21:20   83.1    14    5.5   231      8.1   880.7    0.00   99999    95.1
 244   21:30   82.5    13    6.0   233      8.6   914.7    0.00   99999    94.9
 244   21:40   82.2    13    6.1   233      9.0   914.7    0.00   99999    94.7
 244   21:50   82.4    12    7.7   234     13.9   914.7    0.00   99999    94.5
 244   22:00   82.4    12    6.5   232     10.4   914.6    0.00   99999    94.2
 244   22:10   82.1    12    5.8   228      8.9   914.7    0.00   99999    94.0
 244   22:20   82.0    12    5.7   226      8.0   914.7    0.00   99999    93.8
 244   22:30   82.1    12    6.6   224     10.2   914.6    0.00   99999    93.6
 244   22:40   81.5    12    7.2   229     10.5   914.7    0.00   99999    93.3
 244   22:50   81.2    12    7.4   230     11.1   914.7    0.00   99999    93.2
 244   23:00   81.2    12    7.6   227     11.8   914.7    0.00   99999    93.0
 244   23:10   80.8    12    6.5   228      9.9   914.7    0.00   99999    92.7
 244   23:20   80.6    12    6.3   226     10.3   914.7    0.00   99999    92.6
 244   23:30   80.4    12    6.7   228     13.7   887.7    0.00   99999    92.3
 244   23:40   80.5    12    7.6   232     11.2   914.8    0.00   99999    92.2
 244   23:50   80.2    12    7.2   231     12.6   914.9    0.00   99999    91.9
 245    0:00   80.0    12    8.3   239     14.5   916.2    0.00   99999    91.8
 245    0:10   80.0    12    8.1   231     12.9   873.9    0.00   99999    91.5
 245    0:20   79.6    13    7.6   231     12.3   914.9    0.00    3664    91.3
 245    0:30   79.6    13    8.6   235     14.5   914.9    0.00    3689    91.2
 245    0:40   79.7    13    8.6   233     14.2   895.8    0.00    3606    90.9
 245    0:50   79.6    13    8.4   233     12.9   879.9    0.00    3471    90.8
 245    1:00   79.3    13    8.8   231     12.9   914.7    0.00    3696    90.6
 245    1:10   79.2    13    8.3   231     13.2   914.8    0.00    3697    90.4
 245    1:20   78.8    13    7.0   223     12.1   892.9    0.00    3574    90.2
 245    1:30   78.5    13    5.6   207     10.1   897.9    0.00    3624    90.2
 245    1:40   78.0    13    5.5   205     10.8   914.8    0.00    3703    90.1
 245    1:50   78.1    13    6.3   212     11.5   914.7    0.00    3700    89.9
 245    2:00   78.2    13    8.4   224     13.4   914.7    0.00    3703    89.8
 245    2:10   78.2    13    9.1   230     13.9   914.7    0.00    3704    89.6
 245    2:20   77.9    13    9.4   225     14.3   914.7    0.00    3698    89.5
 245    2:30   77.8    13    8.3   226     12.1   914.8    0.00    3700    89.3
 245    2:40   77.8    12    8.9   219     12.5   914.9    0.00    3706    89.2
 245    2:50   77.5    12    6.7   206     11.2   914.8    0.00    3707    89.0
 245    3:00   77.2    13    6.6   205     11.4   914.7    0.00    3707    88.9
 245    3:10   77.1    13    6.1   211      9.1   914.7    0.00    3708    88.8
 245    3:20   76.1    13    6.4   224     11.3   914.8    0.00    3701    88.6
 245    3:30   75.4    13    5.7   209     10.3   914.9    0.00    3698    88.6
 245    3:40   74.7    13    5.0   184      9.4   914.8    0.00    3695    88.4
 245    3:50   74.0    13    4.2   198      6.6   914.9    0.00    3697    88.3
 245    4:00   73.7    13    5.2   203      9.1   914.9    0.00    3715    88.1
 245    4:10   74.5    12    5.6   208      9.3   914.9    0.00    3716    88.0
 245    4:20   74.1    12    5.9   220      8.3   914.8    0.00    3710    87.9
 245    4:30   74.2    12    5.6   214      8.9   914.8    0.00    3717    87.7
 245    4:40   73.6    12    4.7   192      7.9   914.8    0.00    3717    87.6
 245    4:50   72.7    12    2.4   191      5.6   914.9    0.00    3708    87.5
 245    5:00   71.7    13    2.0   220      2.6   915.1    0.00    3701    87.3
 245    5:10   70.8    13    2.7   216      3.9   915.0    0.00    3716    87.2
 245    5:20   70.2    14    3.3   228      4.7   915.0    0.00    3721    87.0
 245    5:30   70.6    13    3.6   210      5.8   915.1    0.00    3719    86.8
 245    5:40   72.4    12    4.3   230      6.1   915.3    0.00    3730    86.7
 245    5:50   73.6    12    3.3   195      6.0   915.6    0.00    3719    86.5
 245    6:00   74.3    12    3.3   158      6.1   915.9    0.00    3702    86.4
 245    6:10   74.7    12    3.5   199      6.1   916.0    0.00    3730    86.2
 245    6:20   75.1    12    3.2   241      5.5   916.1    0.00    3722    86.1
 245    6:30   75.7    12    3.0   244      5.2   916.2    0.00    3714    85.9
 245    6:40   76.6    11    5.0   230      9.3   916.3    0.00    3715    85.9
 245    6:50   77.5    11    5.7   198     10.7   916.4    0.00    3701    85.9
 245    7:00   77.9    10    8.2   179     12.2   916.5    0.00    3694    85.9
 245    7:10   78.6    10    6.3   173     10.1   896.2    0.00    3585    85.9
 245    7:20   79.4    10    6.7   177     10.8   882.6    0.00    3453    86.0
 245    7:30   80.2    10    8.0   179     11.8   925.0    0.00    3681    86.1
 245    7:40   80.7    10    7.3   174     11.8   917.1    0.00    3676    86.3
 245    7:50   81.2     9    7.9   185     11.5   888.4    0.00    3610    86.7
 245    8:00   81.7     9    8.6   177     13.9   919.9    0.00    3667    86.8
 245    8:10   82.2     9    7.8   166     12.1   917.4    0.00    3662    87.0
 245    8:20   82.9     9    9.2   170     15.3   917.4    0.00    3659    87.4
 245    8:30   83.9     8    8.1   191     13.8   917.5    0.00    3655    87.7
 245    8:40   84.6     8    7.4   214     14.5   917.7    0.00    3651    88.0
 245    8:50   85.0     8    7.3   196     12.4   917.8    0.00    3649    88.5
 245    9:00   85.2     8    7.1   198     14.2   917.9    0.00    3644    89.0
 245    9:10   85.9     7    7.7   185     12.1   918.0    0.00    3642    89.4
 245    9:20   87.0     7    7.6   176     13.4   917.9    0.00    3635    89.8
 245    9:30   87.7     7    6.7   175     14.8   918.0    0.00    3632    90.4
 245    9:40   87.8     7    9.1   184     19.4   918.0    0.00    3628    90.9
 245    9:50   87.9     6    7.3   179     14.5   917.9    0.00    3626    91.4
 245   10:00   87.9     7    6.5   181     12.6   917.8    0.00    3628    92.0
 245   10:10   88.7     6    8.2   176     16.0   917.7    0.00    3622    92.6
 245   10:20   89.3     6    9.1   184     14.0   917.7    0.00    3620    93.1
 245   10:30   89.5     6    7.6   184     17.0   917.6    0.00    3618    93.7
 245   10:40   89.3     6    5.9   145     14.1   917.6    0.00    3612    94.2
 245   10:50   89.7     6    6.8   199     12.1   917.6    0.00    3613    94.9
 245   11:00   89.8     6    7.4   175     13.3   917.7    0.00    3612    95.5
 245   11:10   90.8     6    6.3   118     13.4   917.4    0.00    3608    96.0
 245   11:20   91.2     6    6.2   153     12.5   917.4    0.00    3445    96.3
 245   11:30   92.7     6    8.2   174     17.5   917.2    0.00     911    97.0
 245   11:40   93.0     5    8.0   194     12.4   917.0    0.00     910    97.6
 245   11:50   93.1     5    8.6   178     14.7   916.9    0.00     905    98.2
 245   12:00   93.5     5   10.0   177     18.9   916.8    0.00     902    98.6
 245   12:10   93.8     5   10.3   170     20.0   916.6    0.00     896    99.1
 245   12:20   93.9     5    9.7   181     19.1   916.5    0.00     890    99.4
 245   12:30   94.2     5   10.5   171     19.4   916.4    0.00     881    99.8
 245   12:40   94.9     5    9.8   186     17.6   916.2    0.00     870    100.2
 245   12:50   95.3     5   11.5   191     20.0   916.2    0.00     857    100.5
 245   13:00   95.4     5    9.8   193     18.3   916.8    0.00     843    100.7
 245   13:10   96.3     5   12.1   197     21.1   915.9    0.00     826    101.0
 245   13:20   96.3     4    9.7   176     17.5   915.9    0.00     808    101.2
 245   13:30   96.4     4   12.1   207     18.9   915.8    0.00     790    101.6
 245   13:40   95.6     4   11.9   202     19.9   915.7    0.00     772    101.7
 245   13:50   95.9     4   13.5   200     24.5   915.6    0.00     753    101.9
 245   14:00   95.9     4   10.7   212     18.0   915.4    0.00     730    102.0
 245   14:10   95.9     4   13.1   201     23.5   915.4    0.00     708    102.1
 245   14:20   96.1     4   12.3   203     20.1   915.3    0.00     682    102.2
 245   14:30   96.3     4   11.5   199     19.6   915.3    0.00     655    102.2
 245   14:40   95.7     4   13.2   205     21.8   915.0    0.00     627    102.1
 245   14:50   95.8     4   12.9   206     22.9   915.0    0.00     597    102.2
 245   15:00   95.5     7   12.0   173     22.5   915.0    0.00     566    102.3
 245   15:10   95.8     4   10.7   186     19.0   914.9    0.00     536    102.2
 245   15:20   95.2     4   13.1   202     19.1   914.7    0.00     503    102.2
 245   15:30   95.9     4   11.8   192     18.2   914.7    0.00     470    101.9
 245   15:40   95.0     4   11.6   212     22.6   914.6    0.00     435    101.5
 245   15:50   95.2     4   11.3   196     21.6   914.5    0.00     401    101.4
 245   16:00   95.3     4   10.0   202     18.4   914.5    0.00     366    101.0

Return to Boulder City, Nevada graphs page.


Western Regional Climate Center,wrcc@dri.edu